{"data":{"norad_id":63085,"intl_designator":"2025-037J","name":"STARLINK-32505","alt_names":[],"object_type":"PAYLOAD","status":"ACTIVE","operator":null,"country":"US","launch_date":"2025-02-23","launch_site_code":"AFWTR","launch_vehicle":null,"mission":null,"orbit_class":"UNKNOWN","rcs_meters":null,"size_class":null,"mass_kg":null,"dimensions":null,"purposes":["comms"],"wikipedia_slug":null,"has_3d_model":false,"image_url":null,"decayed_at":null,"tle_current":{"epoch":"2026-05-25T02:25:03.971424Z","epoch_age_seconds":63402,"freshness":"FRESH","line1":"1 63085U 25037J   26145.10074041  .00001052  00000+0  95894-4 0  9990","line2":"2 63085  69.9997 161.9567 0004373 267.8333  92.2325 14.98338566 69996","mean_motion":14.98338566,"eccentricity":0.0004373,"inclination_deg":69.9997,"raan_deg":161.9567,"arg_perigee_deg":267.8333,"mean_anomaly_deg":92.2325,"bstar":9.5894e-5,"rev_number":6999,"period_min":96.106449682081,"perigee_km":568.99009365489,"apogee_km":575.06870918957,"semimajor_km":6950.1664014222,"source":"CELESTRAK","updated_at":"2026-05-25T13:38:19.878470Z"}}}